DLH696 LEBB-EDDC

Flight info

Callsign DLH696
Flight time 1h 57m
Altitude 36000
Route SSN P181 URUNA DCT SECHE DCT TIS DCT LUSAR/N0432F350 DCT MOPAN DCT DINKU N869 ANELA DCT EKPEK
Aircraft A320/M-SDE3FGHIRWY/LB1

Departure

Time 2026-04-28 19:42
Airport Bilbao Airport (LEBB)

Arrival

Time 2026-04-28 21:39
Airport Dresden Airport (EDDC)
Time Latitude Longitude Altitude Speed Heading
2026-04-28 19:05 43.30419 -2.90638 158 ft 0 kts 26°
2026-04-28 19:30 43.30417 -2.90639 158 ft 2 kts 26°
2026-04-28 19:30 43.30394 -2.90654 158 ft 4 kts 30°
2026-04-28 19:30 43.30374 -2.90677 158 ft 4 kts 61°
2026-04-28 19:30 43.30372 -2.90705 158 ft 1 kts 116°
2026-04-28 19:31 43.30372 -2.90706 158 ft 0 kts 117°
2026-04-28 19:33 43.30367 -2.90694 158 ft 4 kts 117°
2026-04-28 19:33 43.30342 -2.90628 158 ft 11 kts 123°
2026-04-28 19:33 43.30280 -2.90559 158 ft 12 kts 146°
2026-04-28 19:33 43.30201 -2.90540 158 ft 13 kts 207°
2026-04-28 19:34 43.30113 -2.90555 158 ft 14 kts 134°
2026-04-28 19:34 43.30064 -2.90428 158 ft 16 kts 116°
2026-04-28 19:34 43.30013 -2.90288 158 ft 17 kts 117°
2026-04-28 19:34 43.29958 -2.90139 158 ft 18 kts 117°
2026-04-28 19:35 43.29899 -2.89980 158 ft 16 kts 116°
2026-04-28 19:35 43.29863 -2.89881 158 ft 11 kts 116°
2026-04-28 19:35 43.29835 -2.89801 158 ft 9 kts 116°
2026-04-28 19:35 43.29804 -2.89718 158 ft 10 kts 116°
2026-04-28 19:36 43.29771 -2.89625 158 ft 11 kts 116°
2026-04-28 19:36 43.29742 -2.89580 158 ft 5 kts 162°
2026-04-28 19:36 43.29718 -2.89583 158 ft 0 kts 209°
2026-04-28 19:40 43.29717 -2.89584 158 ft 1 kts 209°
2026-04-28 19:40 43.29693 -2.89613 158 ft 6 kts 228°
2026-04-28 19:40 43.29651 -2.89696 158 ft 15 kts 243°
2026-04-28 19:41 43.29670 -2.89864 158 ft 24 kts 297°
2026-04-28 19:41 43.29810 -2.90246 158 ft 72 kts 297°
2026-04-28 19:41 43.30112 -2.91072 159 ft 123 kts 296°
2026-04-28 19:41 43.30568 -2.92332 231 ft 163 kts 297°
2026-04-28 19:42 43.31061 -2.93697 965 ft 158 kts 297°
2026-04-28 19:42 43.31553 -2.95057 1623 ft 161 kts 297°
2026-04-28 19:42 43.32064 -2.96457 2118 ft 171 kts 298°
2026-04-28 19:42 43.32446 -2.97462 2283 ft 187 kts 300°
2026-04-28 19:43 43.33767 -2.99315 2552 ft 220 kts 324°
2026-04-28 19:43 43.34990 -3.00651 3284 ft 226 kts 322°
2026-04-28 19:43 43.36168 -3.02065 4245 ft 223 kts 319°
2026-04-28 19:43 43.37318 -3.03518 5104 ft 225 kts 318°
2026-04-28 19:44 43.38459 -3.04981 5889 ft 229 kts 318°
2026-04-28 19:44 43.39659 -3.06447 6663 ft 234 kts 326°
2026-04-28 19:44 43.41249 -3.07194 7047 ft 257 kts
2026-04-28 19:44 43.42921 -3.06389 7869 ft 257 kts 41°
2026-04-28 19:45 43.43921 -3.04428 8930 ft 254 kts 73°
2026-04-28 19:45 43.44336 -3.02000 9609 ft 266 kts 77°
2026-04-28 19:45 43.45030 -2.99670 10599 ft 262 kts 56°
2026-04-28 19:45 43.46265 -2.97790 11373 ft 271 kts 45°
2026-04-28 19:46 43.47683 -2.96004 12044 ft 279 kts 42°
2026-04-28 19:46 43.49155 -2.94200 12741 ft 286 kts 46°
2026-04-28 19:46 43.50296 -2.91930 13371 ft 293 kts 68°
2026-04-28 19:46 43.50746 -2.89207 14044 ft 298 kts 89°
2026-04-28 19:47 43.50402 -2.86314 14235 ft 318 kts 114°
2026-04-28 19:47 43.49487 -2.83502 14847 ft 322 kts 116°
2026-04-28 19:47 43.48549 -2.80699 15623 ft 323 kts 117°
2026-04-28 19:47 43.47617 -2.77906 16289 ft 327 kts 116°
2026-04-28 19:48 43.46685 -2.75014 16824 ft 337 kts 111°
2026-04-28 19:48 43.46154 -2.71761 16957 ft 360 kts 100°
2026-04-28 19:48 43.45761 -2.68255 17081 ft 381 kts 99°
2026-04-28 19:48 43.45373 -2.64550 17205 ft 399 kts 99°
2026-04-28 19:49 43.44980 -2.60682 17353 ft 416 kts 99°
2026-04-28 19:49 43.44578 -2.56704 17762 ft 423 kts 99°
2026-04-28 19:49 43.44164 -2.52671 18294 ft 426 kts 99°
2026-04-28 19:49 43.43883 -2.49977 18646 ft 429 kts 99°
2026-04-28 19:50 43.42867 -2.40457 19821 ft 437 kts 100°
2026-04-28 19:50 43.42416 -2.36308 20312 ft 440 kts 100°
2026-04-28 19:50 43.41961 -2.32128 20790 ft 444 kts 101°
2026-04-28 19:51 43.41651 -2.29283 21106 ft 446 kts 101°
2026-04-28 19:51 43.41190 -2.25062 21572 ft 449 kts 101°
2026-04-28 19:51 43.40723 -2.20793 21864 ft 451 kts 101°
2026-04-28 19:51 43.40256 -2.16525 22017 ft 452 kts 101°
2026-04-28 19:52 43.39784 -2.12232 22432 ft 455 kts 101°
2026-04-28 19:52 43.39306 -2.07916 22882 ft 458 kts 101°
2026-04-28 19:52 43.38824 -2.03578 23321 ft 460 kts 101°
2026-04-28 19:52 43.38339 -1.99208 23730 ft 463 kts 102°
2026-04-28 19:53 43.37854 -1.94832 24134 ft 465 kts 102°
2026-04-28 19:53 43.37366 -1.90476 24513 ft 468 kts 102°
2026-04-28 19:53 43.36867 -1.86045 24860 ft 471 kts 102°
2026-04-28 19:53 43.36565 -1.81544 25252 ft 475 kts 93°
2026-04-28 19:54 43.36756 -1.76915 25467 ft 484 kts 84°
2026-04-28 19:54 43.37503 -1.72387 25862 ft 486 kts 73°
2026-04-28 19:54 43.38749 -1.68074 26274 ft 488 kts 64°
2026-04-28 19:54 43.40476 -1.64026 26404 ft 494 kts 55°
2026-04-28 19:55 43.42407 -1.60145 26646 ft 497 kts 56°
2026-04-28 19:55 43.44366 -1.56212 26939 ft 498 kts 55°
2026-04-28 19:55 43.46330 -1.52273 27193 ft 500 kts 55°
2026-04-28 19:55 43.48300 -1.48306 27448 ft 502 kts 56°
2026-04-28 19:56 43.50269 -1.44328 27691 ft 503 kts 56°
2026-04-28 19:56 43.52242 -1.40331 27930 ft 505 kts 56°
2026-04-28 19:56 43.54211 -1.36328 28258 ft 504 kts 56°
2026-04-28 19:56 43.56177 -1.32328 28591 ft 504 kts 56°
2026-04-28 19:57 43.58137 -1.28330 28917 ft 503 kts 56°
2026-04-28 19:57 43.60100 -1.24328 29236 ft 502 kts 55°
2026-04-28 19:57 43.62055 -1.20346 29544 ft 502 kts 55°
2026-04-28 19:57 43.64017 -1.16350 29859 ft 501 kts 55°
2026-04-28 19:58 43.65972 -1.12363 30164 ft 501 kts 55°
2026-04-28 19:58 43.67897 -1.08428 30490 ft 501 kts 55°
2026-04-28 19:58 43.69846 -1.04431 30838 ft 500 kts 56°
2026-04-28 19:58 43.71783 -1.00445 31184 ft 499 kts 56°
2026-04-28 19:59 43.73718 -0.96460 31514 ft 499 kts 56°
2026-04-28 19:59 43.75661 -0.92459 31856 ft 498 kts 56°
2026-04-28 19:59 43.77587 -0.88488 32204 ft 498 kts 55°
2026-04-28 19:59 43.79518 -0.84504 32558 ft 497 kts 55°
2026-04-28 20:00 43.81441 -0.80534 32910 ft 496 kts 56°
2026-04-28 20:00 43.83359 -0.76567 33255 ft 495 kts 56°
2026-04-28 20:00 43.85281 -0.72582 33592 ft 495 kts 56°
2026-04-28 20:00 43.87194 -0.68619 33923 ft 494 kts 56°
2026-04-28 20:01 43.89100 -0.64668 34252 ft 494 kts 56°
2026-04-28 20:01 43.90988 -0.60743 34570 ft 493 kts 56°
2026-04-28 20:01 43.92884 -0.56783 34893 ft 492 kts 56°
2026-04-28 20:01 43.94777 -0.52824 35203 ft 492 kts 56°
2026-04-28 20:02 43.96669 -0.48869 35508 ft 491 kts 56°
2026-04-28 20:02 43.98557 -0.44916 35807 ft 491 kts 56°
2026-04-28 20:02 44.00449 -0.40950 35920 ft 491 kts 56°
2026-04-28 20:03 44.04236 -0.33001 35952 ft 494 kts 56°
2026-04-28 20:03 44.08029 -0.25026 35949 ft 495 kts 56°
2026-04-28 20:04 44.11822 -0.17023 35950 ft 495 kts 56°
2026-04-28 20:04 44.15606 -0.09017 35950 ft 495 kts 56°
2026-04-28 20:05 44.19385 -0.01003 35950 ft 495 kts 56°
2026-04-28 20:05 44.23147 0.07006 35978 ft 490 kts 57°
2026-04-28 20:06 44.26866 0.14962 35970 ft 489 kts 57°
2026-04-28 20:06 44.30589 0.22928 35955 ft 490 kts 57°
2026-04-28 20:07 44.34311 0.30920 35952 ft 490 kts 57°
2026-04-28 20:07 44.38025 0.38904 35954 ft 490 kts 57°
2026-04-28 20:08 44.41736 0.46902 35952 ft 490 kts 57°
2026-04-28 20:08 44.45456 0.54895 35953 ft 490 kts 56°
2026-04-28 20:09 44.49327 0.62676 35949 ft 490 kts 54°
2026-04-28 20:09 44.53299 0.70442 35951 ft 490 kts 54°
2026-04-28 20:10 44.57221 0.78275 35951 ft 490 kts 55°
2026-04-28 20:10 44.61106 0.86152 35952 ft 490 kts 55°
2026-04-28 20:11 44.64994 0.94027 35956 ft 490 kts 55°
2026-04-28 20:11 44.68876 1.01889 35950 ft 490 kts 55°
2026-04-28 20:12 44.72728 1.09735 35953 ft 490 kts 55°
2026-04-28 20:12 44.76591 1.17640 35958 ft 490 kts 55°
2026-04-28 20:13 44.80463 1.25565 35967 ft 490 kts 55°
2026-04-28 20:13 44.84329 1.33476 35970 ft 490 kts 55°
2026-04-28 20:14 44.88180 1.41404 35973 ft 490 kts 56°
2026-04-28 20:14 44.92031 1.49351 35978 ft 490 kts 56°
2026-04-28 20:15 44.95874 1.57298 35984 ft 490 kts 56°
2026-04-28 20:15 44.99704 1.65261 35989 ft 490 kts 56°
2026-04-28 20:16 45.03532 1.73232 35993 ft 490 kts 56°
2026-04-28 20:16 45.07357 1.81208 35999 ft 490 kts 56°
2026-04-28 20:17 45.11178 1.89207 35999 ft 491 kts 56°
2026-04-28 20:17 45.14972 1.97168 36006 ft 491 kts 56°
2026-04-28 20:18 45.18785 2.05196 36028 ft 489 kts 56°
2026-04-28 20:18 45.22587 2.13209 36022 ft 489 kts 56°
2026-04-28 20:19 45.26380 2.21231 36022 ft 489 kts 56°
2026-04-28 20:19 45.30169 2.29275 36023 ft 489 kts 56°
2026-04-28 20:20 45.33942 2.37325 36023 ft 489 kts 56°
2026-04-28 20:20 45.37717 2.45378 36023 ft 489 kts 56°
2026-04-28 20:21 45.41491 2.53439 36026 ft 489 kts 56°
2026-04-28 20:21 45.45258 2.61522 36028 ft 489 kts 56°
2026-04-28 20:22 45.49014 2.69621 36030 ft 489 kts 56°
2026-04-28 20:22 45.52743 2.77666 36038 ft 488 kts 56°
2026-04-28 20:23 45.56479 2.85756 36038 ft 488 kts 56°
2026-04-28 20:23 45.60210 2.93862 36030 ft 489 kts 56°
2026-04-28 20:24 45.63945 3.01980 36036 ft 488 kts 56°
2026-04-28 20:24 45.67660 3.10102 36036 ft 488 kts 57°
2026-04-28 20:25 45.71373 3.18240 36036 ft 487 kts 56°
2026-04-28 20:25 45.75075 3.26373 36032 ft 488 kts 56°
2026-04-28 20:26 45.78779 3.34516 36031 ft 488 kts 56°
2026-04-28 20:26 45.82476 3.42671 36037 ft 487 kts 57°
2026-04-28 20:27 45.86154 3.50833 36034 ft 487 kts 57°
2026-04-28 20:27 45.89837 3.58929 36023 ft 487 kts 55°
2026-04-28 20:28 45.93774 3.66865 36026 ft 487 kts 53°
2026-04-28 20:28 45.97789 3.74708 36025 ft 487 kts 53°
2026-04-28 20:29 46.01747 3.82614 36024 ft 487 kts 54°
2026-04-28 20:29 46.05658 3.90590 36022 ft 487 kts 54°
2026-04-28 20:30 46.08899 3.97227 36023 ft 487 kts 54°
2026-04-28 20:30 46.13439 4.06510 36026 ft 487 kts 54°
2026-04-28 20:31 46.16721 4.13208 36032 ft 487 kts 54°
2026-04-28 20:31 46.20597 4.21147 36031 ft 487 kts 54°
2026-04-28 20:32 46.24490 4.29153 36030 ft 487 kts 54°
2026-04-28 20:32 46.28372 4.37178 36033 ft 487 kts 54°
2026-04-28 20:33 46.32253 4.45218 36034 ft 488 kts 54°
2026-04-28 20:33 46.36135 4.53271 36036 ft 488 kts 54°
2026-04-28 20:34 46.40012 4.61346 36039 ft 488 kts 54°
2026-04-28 20:34 46.43882 4.69416 36042 ft 487 kts 54°
2026-04-28 20:35 46.47744 4.77492 36044 ft 487 kts 54°
2026-04-28 20:35 46.51593 4.85582 36043 ft 487 kts 54°
2026-04-28 20:36 46.55445 4.93698 36040 ft 488 kts 53°
2026-04-28 20:36 46.59293 5.01812 36046 ft 487 kts 53°
2026-04-28 20:37 46.63133 5.09945 36053 ft 487 kts 53°
2026-04-28 20:37 46.66961 5.18078 36059 ft 487 kts 53°
2026-04-28 20:38 46.71064 5.25923 36066 ft 486 kts 48°
2026-04-28 20:38 46.75437 5.33444 36076 ft 485 kts 47°
2026-04-28 20:39 46.79781 5.40976 36072 ft 485 kts 48°
2026-04-28 20:39 46.84002 5.48592 36067 ft 485 kts 49°
2026-04-28 20:40 46.88215 5.56300 36061 ft 486 kts 49°
2026-04-28 20:40 46.92448 5.64012 36060 ft 486 kts 49°
2026-04-28 20:41 46.96685 5.71722 36061 ft 486 kts 48°
2026-04-28 20:41 47.00932 5.79453 36062 ft 486 kts 48°
2026-04-28 20:42 47.05165 5.87192 36056 ft 487 kts 49°
2026-04-28 20:42 47.09400 5.94962 36058 ft 487 kts 49°
2026-04-28 20:43 47.13627 6.02747 36066 ft 487 kts 48°
2026-04-28 20:43 47.17839 6.10524 36073 ft 486 kts 48°
2026-04-28 20:44 47.22050 6.18311 36074 ft 486 kts 48°
2026-04-28 20:44 47.26233 6.26068 36078 ft 486 kts 48°
2026-04-28 20:45 47.30429 6.33880 36084 ft 486 kts 48°
2026-04-28 20:45 47.34617 6.41717 36081 ft 486 kts 48°
2026-04-28 20:46 47.38811 6.49569 36078 ft 486 kts 48°
2026-04-28 20:46 47.42991 6.57415 36071 ft 486 kts 48°
2026-04-28 20:47 47.47164 6.65283 36068 ft 486 kts 48°
2026-04-28 20:47 47.51337 6.73171 36065 ft 486 kts 48°
2026-04-28 20:48 47.55507 6.81058 36066 ft 486 kts 48°
2026-04-28 20:48 47.59648 6.88908 36069 ft 485 kts 48°
2026-04-28 20:49 47.63793 6.96801 36066 ft 485 kts 48°
2026-04-28 20:49 47.67925 7.04712 36067 ft 485 kts 48°
2026-04-28 20:50 47.72057 7.12631 36071 ft 485 kts 48°
2026-04-28 20:50 47.76184 7.20549 36077 ft 484 kts 48°
2026-04-28 20:51 47.80297 7.28479 36079 ft 484 kts 48°
2026-04-28 20:51 47.84404 7.36427 36084 ft 484 kts 48°
2026-04-28 20:52 47.88505 7.44385 36084 ft 484 kts 48°
2026-04-28 20:52 47.92603 7.52350 36087 ft 483 kts 48°
2026-04-28 20:53 47.98738 7.64314 36089 ft 483 kts 48°
2026-04-28 20:53 48.02791 7.72260 36089 ft 483 kts 48°
2026-04-28 20:54 48.06860 7.80255 36087 ft 483 kts 48°
2026-04-28 20:54 48.10926 7.88265 36090 ft 483 kts 48°
2026-04-28 20:55 48.14991 7.96287 36091 ft 483 kts 48°
2026-04-28 20:55 48.19030 8.04284 36089 ft 476 kts 48°
2026-04-28 20:56 48.23069 8.12297 36087 ft 483 kts 48°
2026-04-28 20:56 48.27035 8.20380 36088 ft 484 kts 50°
2026-04-28 20:57 48.30860 8.28718 36090 ft 485 kts 51°
2026-04-28 20:57 48.34628 8.37114 36094 ft 485 kts 51°
2026-04-28 20:58 48.38434 8.45493 36103 ft 484 kts 51°
2026-04-28 20:58 48.42260 8.53828 36105 ft 483 kts 51°
2026-04-28 20:59 48.46066 8.62138 36105 ft 479 kts 51°
2026-04-28 20:59 48.49858 8.70469 36106 ft 482 kts 51°
2026-04-28 21:00 48.53648 8.78839 36108 ft 482 kts 51°
2026-04-28 21:00 48.57422 8.87208 36109 ft 482 kts 51°
2026-04-28 21:01 48.61151 8.95517 36111 ft 474 kts 51°
2026-04-28 21:01 48.64869 9.03807 36111 ft 477 kts 51°
2026-04-28 21:02 48.68555 9.12066 36116 ft 473 kts 51°
2026-04-28 21:02 48.72248 9.20359 36113 ft 477 kts 51°
2026-04-28 21:03 48.75961 9.28690 36113 ft 471 kts 51°
2026-04-28 21:03 48.79643 9.36975 36118 ft 475 kts 51°
2026-04-28 21:04 48.83322 9.45293 36125 ft 476 kts 51°
2026-04-28 21:04 48.86999 9.53659 36135 ft 476 kts 52°
2026-04-28 21:05 48.90670 9.62056 36145 ft 476 kts 52°
2026-04-28 21:05 48.94311 9.70397 36153 ft 476 kts 52°
2026-04-28 21:06 48.97979 9.78792 36162 ft 476 kts 52°
2026-04-28 21:06 49.01641 9.87186 36162 ft 476 kts 52°
2026-04-28 21:07 49.04685 9.94188 36163 ft 476 kts 52°
2026-04-28 21:07 49.08934 10.04038 36168 ft 476 kts 52°
2026-04-28 21:08 49.12563 10.12487 36169 ft 475 kts 52°
2026-04-28 21:08 49.16190 10.20931 36173 ft 475 kts 52°
2026-04-28 21:09 49.19205 10.27961 36175 ft 476 kts 52°
2026-04-28 21:09 49.22841 10.36410 36180 ft 475 kts 49°
2026-04-28 21:10 49.27966 10.44930 36189 ft 465 kts 39°
2026-04-28 21:10 49.31814 10.50819 36179 ft 467 kts 39°
2026-04-28 21:11 49.36394 10.57884 36183 ft 467 kts 40°
2026-04-28 21:11 49.40851 10.65071 36186 ft 467 kts 41°
2026-04-28 21:12 49.45319 10.72328 36189 ft 467 kts 40°
2026-04-28 21:12 49.49861 10.79481 36195 ft 467 kts 40°
2026-04-28 21:13 49.54411 10.86609 36193 ft 467 kts 40°
2026-04-28 21:13 49.58941 10.93769 36196 ft 466 kts 40°
2026-04-28 21:14 49.63458 11.00969 36195 ft 467 kts 40°
2026-04-28 21:14 49.67966 11.08185 36195 ft 467 kts 40°
2026-04-28 21:15 49.72485 11.15410 36200 ft 466 kts 40°
2026-04-28 21:15 49.76963 11.22585 36206 ft 466 kts 40°
2026-04-28 21:16 49.81427 11.29963 36208 ft 470 kts 42°
2026-04-28 21:16 49.85776 11.37410 36216 ft 467 kts 42°
2026-04-28 21:17 49.90137 11.44880 36220 ft 467 kts 42°
2026-04-28 21:17 49.94502 11.52334 36225 ft 466 kts 41°
2026-04-28 21:18 49.98884 11.59787 35421 ft 469 kts 41°
2026-04-28 21:18 50.01097 11.63553 34567 ft 471 kts 41°
2026-04-28 21:18 50.03284 11.67295 34076 ft 463 kts 41°
2026-04-28 21:19 50.05436 11.70996 33555 ft 457 kts 40°
2026-04-28 21:19 50.07556 11.74644 33031 ft 451 kts 41°
2026-04-28 21:19 50.09627 11.78210 32514 ft 446 kts 41°
2026-04-28 21:19 50.11720 11.81819 31984 ft 442 kts 41°
2026-04-28 21:20 50.13748 11.85312 31472 ft 437 kts 41°
2026-04-28 21:20 50.15779 11.88813 30945 ft 433 kts 41°
2026-04-28 21:20 50.17787 11.92238 30431 ft 428 kts 40°
2026-04-28 21:20 50.19805 11.95639 29902 ft 426 kts 42°
2026-04-28 21:21 50.21783 11.99059 29379 ft 423 kts 43°
2026-04-28 21:21 50.23728 12.02476 28848 ft 419 kts 43°
2026-04-28 21:21 50.25653 12.05873 28322 ft 415 kts 43°
2026-04-28 21:21 50.27542 12.09197 27798 ft 412 kts 43°
2026-04-28 21:22 50.29441 12.12527 27266 ft 408 kts 43°
2026-04-28 21:22 50.31326 12.15825 26734 ft 404 kts 43°
2026-04-28 21:22 50.33199 12.19094 26210 ft 400 kts 43°
2026-04-28 21:22 50.35050 12.22325 25683 ft 397 kts 43°
2026-04-28 21:23 50.36883 12.25524 25157 ft 393 kts 43°
2026-04-28 21:23 50.38699 12.28703 24627 ft 389 kts 43°
2026-04-28 21:23 50.40486 12.31842 24104 ft 385 kts 44°
2026-04-28 21:23 50.42262 12.34965 23579 ft 381 kts 44°
2026-04-28 21:24 50.44012 12.38052 23056 ft 377 kts 44°
2026-04-28 21:24 50.45748 12.41117 22531 ft 373 kts 44°
2026-04-28 21:24 50.47462 12.44145 22009 ft 369 kts 44°
2026-04-28 21:24 50.49158 12.47146 21489 ft 366 kts 44°
2026-04-28 21:25 50.50838 12.50119 20969 ft 362 kts 44°
2026-04-28 21:25 50.52483 12.53033 20455 ft 359 kts 44°
2026-04-28 21:25 50.54152 12.55992 19928 ft 355 kts 45°
2026-04-28 21:25 50.55763 12.58849 19419 ft 352 kts 45°
2026-04-28 21:26 50.57385 12.61723 18900 ft 349 kts 45°
2026-04-28 21:26 50.59004 12.64599 18384 ft 345 kts 45°
2026-04-28 21:26 50.60571 12.67379 17872 ft 343 kts 45°
2026-04-28 21:26 50.62149 12.70181 17360 ft 340 kts 45°
2026-04-28 21:27 50.63706 12.72958 16846 ft 337 kts 45°
2026-04-28 21:27 50.65249 12.75716 16336 ft 334 kts 45°
2026-04-28 21:27 50.66779 12.78454 15821 ft 332 kts 45°
2026-04-28 21:27 50.68293 12.81169 15309 ft 329 kts 46°
2026-04-28 21:28 50.69797 12.83872 14797 ft 327 kts 46°
2026-04-28 21:28 50.71290 12.86557 14287 ft 324 kts 46°
2026-04-28 21:28 50.72776 12.89231 13772 ft 322 kts 46°
2026-04-28 21:28 50.74249 12.91882 13262 ft 320 kts 46°
2026-04-28 21:29 50.75713 12.94517 12747 ft 318 kts 46°
2026-04-28 21:29 50.77170 12.97142 12233 ft 316 kts 46°
2026-04-28 21:29 50.78618 12.99755 11716 ft 314 kts 47°
2026-04-28 21:29 50.80055 13.02348 11200 ft 313 kts 47°
2026-04-28 21:30 50.81485 13.04927 10683 ft 311 kts 47°
2026-04-28 21:30 50.82904 13.07486 10312 ft 305 kts 47°
2026-04-28 21:30 50.84271 13.09951 10188 ft 291 kts 47°
2026-04-28 21:30 50.85579 13.12323 10000 ft 282 kts 48°
2026-04-28 21:31 50.86862 13.14655 9663 ft 279 kts 48°
2026-04-28 21:31 50.88135 13.16964 9289 ft 278 kts 48°
2026-04-28 21:31 50.89399 13.19262 8909 ft 277 kts 49°
2026-04-28 21:31 50.90664 13.21565 8550 ft 275 kts 49°
2026-04-28 21:32 50.91912 13.23843 8152 ft 271 kts 49°
2026-04-28 21:32 50.93145 13.26092 7684 ft 269 kts 49°
2026-04-28 21:32 50.94365 13.28320 7229 ft 266 kts 49°
2026-04-28 21:32 50.95546 13.30555 6782 ft 263 kts 56°
2026-04-28 21:33 50.96382 13.33063 6366 ft 261 kts 70°
2026-04-28 21:33 50.96781 13.35843 6093 ft 256 kts 81°
2026-04-28 21:33 50.97033 13.38638 5723 ft 256 kts 81°
2026-04-28 21:33 50.97284 13.41423 5310 ft 253 kts 81°
2026-04-28 21:34 50.97531 13.44222 4794 ft 251 kts 81°
2026-04-28 21:34 50.97763 13.46917 4659 ft 241 kts 81°
2026-04-28 21:34 50.97986 13.49502 4557 ft 232 kts 81°
2026-04-28 21:34 50.98204 13.51990 4457 ft 223 kts 80°
2026-04-28 21:35 50.98413 13.54360 4361 ft 216 kts 79°
2026-04-28 21:35 50.98909 13.56543 4266 ft 209 kts 57°
2026-04-28 21:35 50.99883 13.58238 4010 ft 208 kts 40°
2026-04-28 21:35 51.00983 13.59714 3718 ft 205 kts 40°
2026-04-28 21:36 51.02060 13.61174 3443 ft 202 kts 41°
2026-04-28 21:36 51.03111 13.62609 3178 ft 194 kts 41°
2026-04-28 21:36 51.04105 13.63970 2941 ft 183 kts 41°
2026-04-28 21:36 51.05036 13.65247 2695 ft 171 kts 41°
2026-04-28 21:37 51.05904 13.66438 2476 ft 159 kts 41°
2026-04-28 21:37 51.06720 13.67558 2263 ft 154 kts 41°
2026-04-28 21:37 51.07532 13.68674 2073 ft 154 kts 40°
2026-04-28 21:37 51.08302 13.69731 1860 ft 139 kts 41°
2026-04-28 21:38 51.09046 13.70753 1676 ft 141 kts 40°
2026-04-28 21:38 51.09774 13.71754 1495 ft 139 kts 40°
2026-04-28 21:38 51.10505 13.72760 1313 ft 139 kts 40°
2026-04-28 21:38 51.11234 13.73763 1134 ft 138 kts 40°
2026-04-28 21:39 51.11957 13.74767 931 ft 138 kts 41°
2026-04-28 21:39 51.12684 13.75759 785 ft 136 kts 40°
2026-04-28 21:39 51.13332 13.76656 766 ft 103 kts 41°
2026-04-28 21:39 51.13729 13.77199 766 ft 49 kts 41°
2026-04-28 21:40 51.13889 13.77446 766 ft 13 kts 49°
2026-04-28 21:40 51.13878 13.77558 766 ft 10 kts 129°
2026-04-28 21:40 51.13830 13.77648 766 ft 11 kts 131°
2026-04-28 21:40 51.13769 13.77716 766 ft 11 kts 182°
2026-04-28 21:41 51.13704 13.77648 766 ft 12 kts 221°
2026-04-28 21:41 51.13637 13.77554 766 ft 13 kts 221°
2026-04-28 21:41 51.13563 13.77453 766 ft 15 kts 220°
2026-04-28 21:41 51.13482 13.77343 766 ft 16 kts 220°
2026-04-28 21:42 51.13395 13.77224 766 ft 17 kts 220°
2026-04-28 21:42 51.13302 13.77096 766 ft 18 kts 221°
2026-04-28 21:42 51.13202 13.76958 766 ft 20 kts 220°
2026-04-28 21:42 51.13095 13.76812 766 ft 21 kts 220°
2026-04-28 21:43 51.12982 13.76658 766 ft 22 kts 220°
2026-04-28 21:43 51.12883 13.76521 766 ft 17 kts 221°
2026-04-28 21:43 51.12823 13.76439 766 ft 6 kts 221°
2026-04-28 21:43 51.12790 13.76393 766 ft 7 kts 221°
2026-04-28 21:44 51.12751 13.76339 766 ft 8 kts 221°
2026-04-28 21:44 51.12706 13.76277 766 ft 9 kts 221°
2026-04-28 21:44 51.12661 13.76213 766 ft 7 kts 222°
2026-04-28 21:44 51.12627 13.76202 766 ft 6 kts 139°
2026-04-28 21:45 51.12603 13.76252 766 ft 3 kts 130°
2026-04-28 21:45 51.12587 13.76281 766 ft 3 kts 131°
2026-04-28 21:45 51.12574 13.76305 766 ft 2 kts 131°
2026-04-28 21:45 51.12569 13.76315 766 ft 1 kts 131°
2026-04-28 21:46 51.12568 13.76316 766 ft 0 kts 131°